太空蜂星座-154星 (SPACEBEE-154)

导读

SPACEBEE-154是美国蜂群科技公司(Swarm Technologies)于2022年5月2日发射的一颗小型皮卫星,隶属于SpaceBEE(太空蜂)卫星星座。该卫星基于0.25U立方体卫星平台设计,重量仅约80克,属于低成本商业卫星,主要为全球物联网提供双向通信与数据中继服务,可支撑农业监测、物流追踪、环境观测等领域的设备连接,是微型商业通信卫星领域的典型代表。

基本信息
目录编号:
52417
目录名称:
SPACEBEE-154
国际标识:
2022-047Z
轨道中心:
EARTH
卫星名称:
太空蜂星座-154星
卫星全名:
太空蜂星座-154星 (SPACEBEE-154)
卫星状态:
已陨落 最后检测时间 2024-05-09
发射日期:
2022-05-02 UTC
国别 :
美国 (US)
星等 :
--
轨道信息
数据来源 国际轨道数据
星历时间: 2024-05-04T23:19:43+0800
轨道信息已过期800天
半长轴: 6544.118km
偏心率: 0.0015004
轨道倾角: 97.354°
近地点辐角 274.202°
升交点赤经 220.055°
平近点角 85.756°
近地点: 156.164km
远地点: 175.802km
周期: 87.808分钟
每日圈数: 16.399331
详细信息
平衡模式:
三轴稳定
覆盖范围:
全球
运营商:
蜂群科技公司
运营商所在国:
美国
制造商(研发单位):
蜂群科技公司
制造商所在国:
美国
使用方式:
暂无
卫星简介
太空蜜蜂(SpaceBEE)皮卫星建立在0.25U立方体卫星平台上,是私营公司蜂群科技公司(Swarm Technologies)开发的卫星星座的一部分。该星座计划由大约150颗皮卫星组成,提供双向卫星通信和数据中继。该卫星已陨落。